Weather History for KDLN - March, 2014

Change the Weather History Date:

Saturday, March 8, 2014

  Actual Average Record
Temperature  
Mean Temperature 40 °F 32 °F  
Max Temperature 54 °F 44 °F 62 °F (2005)
Min Temperature 26 °F 21 °F -15 °F (2002)
Degree Days  
Heating Degree Days 25    
Month to date heating degree days 271  
Since 1 July heating degree days 6051  
Cooling Degree Days 0    
Month to date cooling degree days 0  
Year to date cooling degree days 0  
Moisture  
Dew Point 23 °F    
Average Humidity 60    
Maximum Humidity 85    
Minimum Humidity 35    
Precipitation  
Precipitation 0.00 in 0.01 in 0.70 in (1958)
Month to date precipitation 0.06 0.10  
Year to date precipitation 0.29 0.62  
Snow  
Snow 0.00 in - - ()
Snow Depth 0.00 in    
Sea Level Pressure  
Sea Level Pressure 30.22 in    
Wind  
Wind Speed 10 mph (SSW)    
Max Wind Speed 26 mph    
Max Gust Speed 30 mph    
Visibility 10 miles    
Events      
T = Trace of Precipitation, MM = Missing Value Source: NWS Daily Summary

Daily Weather History Graph

Daily Weather History Graph

Search for Another Location

Airport or City:

Trip Planner

Search our weather history database for the weather conditions in past years. The results will help you decide how hot, cold, wet, or windy it might be!

Date:

Astronomy

Mar. 08, 2014 Rise Set
Actual Time 6:55 AM MST 6:27 PM MST
Civil Twilight 6:26 AM MST 6:56 PM MST
Nautical Twilight 5:52 AM MST 7:30 PM MST
Astronomical Twilight 5:17 AM MST 8:05 PM MST
Moon 11:22 AM MST (3/8) 1:45 AM MST (3/8)
Length of Visible Light 12h 30m
Length of Day
11h 31m
First Quarter, 52% of the Moon is Illuminated
Mar 8
First Quarter
Mar 16
Full
Mar 23
Last Quarter
Mar 30
New
Apr 7
First Quarter

Hourly Weather History & Observations

Time (MST) Temp. Windchill Dew Point Humidity Pressure Visibility Wind Dir Wind Speed Gust Speed Precip Events Conditions
12:53 AM 28.9 °F 19.8 °F 23.0 °F 78% 30.27 in 10.0 mi SSW 10.4 mph - N/A   Clear
1:53 AM 30.9 °F 22.2 °F 24.1 °F 76% 30.26 in 10.0 mi South 10.4 mph - N/A   Clear
2:53 AM 28.0 °F 19.3 °F 21.9 °F 78% 30.28 in 10.0 mi WSW 9.2 mph - N/A   Clear
3:53 AM 27.0 °F 20.5 °F 21.9 °F 81% 30.27 in 10.0 mi WSW 5.8 mph - N/A   Clear
4:53 AM 27.0 °F 18.0 °F 21.0 °F 78% 30.28 in 10.0 mi WSW 9.2 mph - N/A   Clear
5:53 AM 27.0 °F 18.0 °F 21.0 °F 78% 30.29 in 10.0 mi SSW 9.2 mph - N/A   Clear
6:53 AM 27.0 °F 18.7 °F 21.0 °F 78% 30.31 in 10.0 mi South 8.1 mph - N/A   Clear
7:53 AM 28.9 °F 18.2 °F 21.9 °F 75% 30.34 in 10.0 mi SSW 13.8 mph - N/A   Clear
8:53 AM 32.0 °F 24.2 °F 24.1 °F 73% 30.35 in 10.0 mi SSW 9.2 mph - N/A   Clear
9:53 AM 36.0 °F 28.0 °F 23.0 °F 59% 30.32 in 10.0 mi SW 11.5 mph - N/A   Clear
10:53 AM 39.9 °F 33.4 °F 23.0 °F 51% 30.29 in 10.0 mi SW 10.4 mph - N/A   Clear
11:53 AM 42.1 °F 39.2 °F 23.0 °F 47% 30.28 in 10.0 mi SW 4.6 mph - N/A   Clear
12:53 PM 46.0 °F 44.8 °F 23.0 °F 40% 30.20 in 10.0 mi SSE 3.5 mph - N/A   Clear
1:53 PM 51.1 °F - 24.1 °F 35% 30.14 in 10.0 mi South 9.2 mph - N/A   Clear
2:53 PM 51.1 °F - 24.1 °F 35% 30.12 in 10.0 mi SSW 21.9 mph - N/A   Clear
3:53 PM 50.0 °F - 25.0 °F 38% 30.13 in 10.0 mi SSW 13.8 mph - N/A   Clear
4:53 PM 51.1 °F - 25.0 °F 36% 30.12 in 10.0 mi SSW 16.1 mph - N/A   Clear
5:53 PM 48.0 °F - 24.1 °F 39% 30.13 in 10.0 mi South 15.0 mph - N/A   Clear
6:53 PM 43.0 °F 37.2 °F 25.0 °F 49% 30.16 in 10.0 mi South 10.4 mph - N/A   Clear
7:53 PM 43.0 °F 36.4 °F 24.1 °F 47% 30.14 in 10.0 mi SSW 12.7 mph - N/A   Clear
8:53 PM 39.0 °F 35.7 °F 24.1 °F 55% 30.15 in 10.0 mi SSW 4.6 mph - N/A   Clear
9:53 PM 39.9 °F - 24.1 °F 53% 30.14 in 10.0 mi Calm Calm - N/A   Overcast
10:53 PM 44.1 °F 40.1 °F 21.9 °F 42% 30.10 in 10.0 mi South 6.9 mph - N/A   Overcast
11:53 PM 41.0 °F 39.0 °F 24.1 °F 51% 30.09 in 10.0 mi South 3.5 mph - N/A   Scattered Clouds